Location: Unspecified
(0.0000°N, 0.0000°E)
Time: 01:21:44
(UTC+00:00)

YAOGAN-43 02B - Visible Passes

Search period start: 10 October 2024 00:00
Search period end: 20 October 2024 00:00
Orbit: 494 x 497 km, 35.0° (Epoch: 09 October)

Date Brightness Start Highest point End Pass type
(mag) Time Alt. Az. Time Alt. Az. Time Alt. Az.
10 Oct ? 04:18:20 10° S 04:20:12 13° SE 04:22:04 10° ESE visible
11 Oct ? 03:54:56 13° SSE 03:55:57 14° SE 03:58:05 10° ESE visible
12 Oct ? 03:32:55 14° ESE 03:32:55 14° ESE 03:33:59 10° ESE visible
12 Oct ? 05:07:35 10° WSW 05:11:20 50° NW 05:15:04 10° NE visible
13 Oct ? 04:45:22 28° W 04:46:56 45° NW 04:50:37 10° NE visible
14 Oct ? 04:23:11 36° N 04:23:11 36° N 04:26:05 10° NE visible
15 Oct ? 04:00:52 14° NNE 04:00:52 14° NNE 04:01:29 10° NNE visible
